Location: Miramichi City (Newcastle)
(46.9830°N, 65.5670°W)
Time: 20:13:10
(UTC-04:00)

Iridium 12 - Visible Passes

Search period start: 22 February 2017 00:00
Search period end: 04 March 2017 00:00
Orbit: 776 x 779 km, 86.4° (Epoch: 22 February)

Date Brightness Start Highest point End Pass type
(mag) Time Alt. Az. Time Alt. Az. Time Alt. Az.
22 Feb 8.5 02:41:26 10° NE 02:42:24 11° NE 02:42:24 11° NE visible
22 Feb 6.6 04:19:44 10° N 04:22:50 37° N 04:22:50 37° N visible
22 Feb 7.4 06:02:22 10° NW 06:03:16 12° NW 06:03:16 12° NW visible
23 Feb 7.2 03:46:20 10° N 03:49:00 28° NNE 03:49:00 28° NNE visible
23 Feb 7.1 05:27:42 10° NNW 05:29:26 17° NW 05:29:26 17° NW visible
23 Feb 8.5 18:30:22 10° W 18:32:48 13° WNW 18:35:16 10° NW visible
24 Feb 7.8 03:13:11 10° NNE 03:15:13 20° NE 03:15:13 20° NE visible
24 Feb 7.0 04:53:38 10° NNW 04:55:40 22° NNW 04:55:40 22° NNW visible
25 Feb 8.3 02:40:28 10° NNE 02:41:30 13° NE 02:41:30 13° NE visible
25 Feb 7.1 04:19:53 10° N 04:21:57 24° NNW 04:21:57 24° NNW visible
26 Feb 7.4 03:46:20 10° N 03:48:17 23° N 03:48:17 23° N visible
26 Feb 7.6 05:28:22 10° NW 05:28:44 11° NW 05:28:44 11° NW visible
27 Feb 7.8 03:13:01 10° N 03:14:39 19° NNE 03:14:39 19° NNE visible
27 Feb 7.5 04:54:01 10° NNW 04:55:06 15° NNW 04:55:06 15° NNW visible
28 Feb 8.2 02:40:01 10° NNE 02:41:03 14° NNE 02:41:03 14° NNE visible
28 Feb 7.4 04:20:06 10° NNW 04:21:30 18° NNW 04:21:30 18° NNW visible
01 Mar 7.5 03:46:26 10° N 03:47:56 19° N 03:47:56 19° N visible
02 Mar 7.8 03:12:59 10° N 03:14:22 18° N 03:14:22 18° N visible
02 Mar 7.7 04:54:34 10° NNW 04:54:49 11° NNW 04:54:49 11° NNW visible
03 Mar 8.1 02:39:46 10° NNE 02:40:49 15° NNE 02:40:49 15° NNE visible
03 Mar 7.6 04:20:25 10° NNW 04:21:17 14° NNW 04:21:17 14° NNW visible
